This is the latest recevied weather packets stored in our database for station/object AG7BI. If no packets are shown the sender has not sent any weather packets the latest 1 day(s).
| Time | Temp. | Humidity | Pressure | Rain* | Wind** | Luminosity | Snow |
|---|---|---|---|---|---|---|---|
| 1778003452 | 12.78° C | 82% | 1016.7 hPa | 0 mm | 0.45 m/s, 160° | - | - |
| 1778003152 | 12.78° C | 81% | 1016.4 hPa | 0 mm | 0.45 m/s, 112° | - | - |
| 1778002852 | 12.78° C | 82% | 1016.5 hPa | 0 mm | 0.89 m/s, 137° | - | - |
| 1778002552 | 12.78° C | 83% | 1016.7 hPa | 0 mm | 0.89 m/s, 158° | - | - |
| 1778002252 | 12.78° C | 82% | 1016.3 hPa | 0 mm | 1.34 m/s, 122° | - | - |
| 1778001952 | 12.78° C | 82% | 1016.4 hPa | 0 mm | 0.45 m/s, 158° | - | - |
| 1778001652 | 12.22° C | 82% | 1016.4 hPa | 0 mm | 0.45 m/s, 182° | - | - |
| 1778001352 | 12.22° C | 83% | 1016.3 hPa | 0 mm | 0.89 m/s, 164° | - | - |
| 1778001052 | 12.22° C | 84% | 1016.6 hPa | 0 mm | 0.45 m/s, 143° | - | - |
| 1778000752 | 12.22° C | 83% | 1016.7 hPa | 0 mm | 0.45 m/s, 157° | - | - |
| 1778000452 | 12.22° C | 84% | 1016.4 hPa | 0 mm | 0.89 m/s, 156° | - | - |
| 1778000152 | 12.22° C | 87% | 1016.5 hPa | 0 mm | 0.89 m/s, 152° | - | - |
| 1777999852 | 12.22° C | 87% | 1016.4 hPa | 0 mm | 0.45 m/s, 141° | - | - |
| 1777999552 | 11.67° C | 86% | 1016.5 hPa | 0 mm | 0.45 m/s, 122° | - | - |
| 1777999252 | 11.67° C | 85% | 1016.4 hPa | 0 mm | 1.34 m/s, 128° | - | - |
| 1777998952 | 11.67° C | 86% | 1016.2 hPa | 0 mm | 0.89 m/s, 123° | - | - |
| 1777998652 | 11.67° C | 87% | 1016.5 hPa | 0 mm | 0.89 m/s, 139° | - | - |
| 1777998352 | 11.67° C | 85% | 1016.2 hPa | 0 mm | 0.45 m/s, 146° | - | - |
| 1777998052 | 11.67° C | 86% | 1016.3 hPa | 0 mm | 0.89 m/s, 141° | - | - |
| 1777997752 | 11.67° C | 87% | 1016.3 hPa | 0 mm | 0.89 m/s, 150° | - | - |
| 1777997452 | 11.67° C | 87% | 1016.3 hPa | 0 mm | 0.89 m/s, 129° | - | - |
| 1777997152 | 11.67° C | 87% | 1016.4 hPa | 0 mm | 0.89 m/s, 132° | - | - |
| 1777996852 | 11.67° C | 88% | 1016.4 hPa | 0 mm | 0.89 m/s, 149° | - | - |
| 1777996552 | 11.67° C | 87% | 1016.3 hPa | 0 mm | 0.89 m/s, 145° | - | - |
| 1777996252 | 11.67° C | 89% | 1016.2 hPa | 0 mm | 0.89 m/s, 129° | - | - |
* Rain latest hour (hover to see other rain measurements)
** Current wind speed in m/s (hover to see current wind gust speed)